sat.trackr.live / text

‹ back to catalog

STARLINK-5322

NORAD 55303 · 2023-010AL

PAYLOAD ACTIVE UNKNOWN

§ Identity

Operator
Country
US
Launch date
2023-01-19
Launch site
AFWTR
Launch vehicle
Mass (kg)
RCS (m²)

Purposes: comms

External: N2YO · Heavens-Above · Gunter

§ Orbital elements

Epoch: 2026-05-24T21:10:13.775232Z

Period
96.11 min
Inclination
69.9995°
Eccentricity
0.0003343
Mean motion
14.98325014 rev/d
Perigee alt
569.7 km
Apogee alt
574.4 km
Semi-major
6,950.2 km
B*
7.6941e-5
RAAN
212.1473°
Arg perigee
267.5676°
Mean anomaly
92.5100°
Rev number
18,419

§ Raw data

STARLINK-53221 55303U 23010AL  26144.88210388  .00000825  00000+0  76941-4 0  99922 55303  69.9995 212.1473 0003343 267.5676  92.5100 14.98325014184194

JSON: /api/v1/satellites/55303 · /tle

For live sub-satellite position, see the globe view (requires WebGL).

§ Visibility from observer

Set your observer location to see the next 7 days of passes ≥ 10°. The values pass through the URL so the page stays shareable.

No JS? Fill the form by hand. The geolocation button needs JavaScript.